| time (UTC) | temp C | wind direction | speed KPH | gust KPH | rain 1hr cm | rain 24hr cm | rain mn cm | humidity % | barometer mb |
| 20260507193541 | 23 | 284 | 1.6 | 6.4 | 0.00 | 0.00 | 0.00 | 51 | 1016.4 |
| 20260507193330 | 23 | 279 | 1.6 | 0.0 | 0.00 | 0.00 | 0.00 | 54 | 1016.5 |
| 20260507193124 | 23 | 279 | 1.6 | 8.0 | 0.00 | 0.00 | 0.00 | 52 | 1016.4 |
| 20260507192920 | 23 | 279 | 1.6 | 8.0 | 0.00 | 0.00 | 0.00 | 53 | 1016.5 |
| 20260507192710 | 23 | 277 | 1.6 | 8.0 | 0.00 | 0.00 | 0.00 | 52 | 1016.4 |
| 20260507192502 | 23 | 207 | 0.0 | 8.0 | 0.00 | 0.00 | 0.00 | 53 | 1016.5 |
| 20260507192300 | 23 | 215 | 1.6 | 8.0 | 0.00 | 0.00 | 0.00 | 55 | 1016.5 |
| 20260507191911 | 23 | 211 | 1.6 | 6.4 | 0.00 | 0.00 | 0.00 | 54 | 1016.6 |
| 20260507191701 | 23 | 274 | 1.6 | 8.0 | 0.00 | 0.00 | 0.00 | 54 | 1016.6 |
| 20260507191451 | 23 | 296 | 1.6 | 8.0 | 0.00 | 0.00 | 0.00 | 52 | 1016.6 |
| 20260507191242 | 23 | 294 | 1.6 | 8.0 | 0.00 | 0.00 | 0.00 | 54 | 1016.6 |
| 20260507191032 | 23 | 281 | 1.6 | 8.0 | 0.00 | 0.00 | 0.00 | 53 | 1016.7 |
| 20260507190829 | 23 | 189 | 1.6 | 8.0 | 0.00 | 0.00 | 0.00 | 53 | 1016.7 |
| 20260507190621 | 23 | 230 | 1.6 | 9.7 | 0.00 | 0.00 | 0.00 | 55 | 1016.8 |
| 20260507190409 | 23 | 230 | 1.6 | 9.7 | 0.00 | 0.00 | 0.00 | 57 | 1016.7 |
| 20260507190012 | 22 | 257 | 3.2 | 9.7 | 0.00 | 0.00 | 0.00 | 58 | 1016.7 |
| 20260507185619 | 22 | 5 | 1.6 | 9.7 | 0.00 | 0.00 | 0.00 | 57 | 1016.8 |
| 20260507185416 | 22 | 351 | 1.6 | 9.7 | 0.00 | 0.00 | 0.00 | 54 | 1016.9 |
| 20260507185022 | 22 | 286 | 1.6 | 9.7 | 0.00 | 0.00 | 0.00 | 56 | 1016.9 |
| 20260507184810 | 22 | 283 | 1.6 | 9.7 | 0.00 | 0.00 | 0.00 | 54 | 1017.0 |
| 20260507184559 | 22 | 281 | 1.6 | 6.4 | 0.00 | 0.00 | 0.00 | 54 | 1017.0 |
| 20260507184356 | 22 | 281 | 0.0 | 6.4 | 0.00 | 0.00 | 0.00 | 53 | 1017.0 |
| 20260507184154 | 22 | 280 | 1.6 | 6.4 | 0.00 | 0.00 | 0.00 | 57 | 1017.1 |
| 20260507183801 | 22 | 229 | 1.6 | 6.4 | 0.00 | 0.00 | 0.00 | 54 | 1017.1 |
| 20260507183600 | 22 | 279 | 1.6 | 0.0 | 0.00 | 0.00 | 0.00 | 56 | 1017.0 |
| 20260507183347 | 22 | 279 | 1.6 | 9.7 | 0.00 | 0.00 | 0.00 | 54 | 1017.1 |
| 20260507183138 | 22 | 329 | 0.0 | 8.0 | 0.00 | 0.00 | 0.00 | 55 | 1017.0 |
| 20260507182931 | 22 | 307 | 0.0 | 8.0 | 0.00 | 0.00 | 0.00 | 58 | 1017.0 |
| 20260507182724 | 21 | 250 | 1.6 | 8.0 | 0.00 | 0.00 | 0.00 | 56 | 1017.0 |
| 20260507182511 | 21 | 250 | 1.6 | 8.0 | 0.00 | 0.00 | 0.00 | 54 | 1017.0 |
| 20260507182309 | 22 | 249 | 1.6 | 8.0 | 0.00 | 0.00 | 0.00 | 54 | 1017.1 |
| 20260507181921 | 21 | 275 | 1.6 | 8.0 | 0.00 | 0.00 | 0.00 | 58 | 1017.1 |
| 20260507181527 | 21 | 209 | 0.0 | 8.0 | 0.00 | 0.00 | 0.00 | 57 | 1017.2 |
| 20260507181318 | 21 | 201 | 0.0 | 8.0 | 0.00 | 0.00 | 0.00 | 57 | 1017.1 |
| 20260507180929 | 21 | 320 | 0.0 | 8.0 | 0.00 | 0.00 | 0.00 | 60 | 1017.2 |
| 20260507180724 | 21 | 302 | 1.6 | 8.0 | 0.00 | 0.00 | 0.00 | 59 | 1017.1 |
| 20260507180520 | 21 | 302 | 0.0 | 8.0 | 0.00 | 0.00 | 0.00 | 58 | 1017.3 |
| 20260507175944 | 20 | 288 | 0.0 | 6.4 | 0.00 | 0.00 | 0.00 | 61 | 1017.3 |
| 20260507175737 | 20 | 291 | 0.0 | 1.6 | 0.00 | 0.00 | 0.00 | 61 | 1017.2 |
| 20260507175525 | 20 | 291 | 1.6 | 6.4 | 0.00 | 0.00 | 0.00 | 62 | 1017.3 |
| 20260507175135 | 20 | 293 | 1.6 | 11.3 | 0.00 | 0.00 | 0.00 | 62 | 1017.3 |
| 20260507174930 | 20 | 282 | 0.0 | 11.3 | 0.00 | 0.00 | 0.00 | 63 | 1017.3 |
| 20260507174717 | 20 | 277 | 0.0 | 11.3 | 0.00 | 0.00 | 0.00 | 63 | 1017.3 |
| 20260507174506 | 19 | 255 | 0.0 | 8.0 | 0.00 | 0.00 | 0.00 | 63 | 1017.3 |
| 20260507174254 | 19 | 258 | 0.0 | 8.0 | 0.00 | 0.00 | 0.00 | 65 | 1017.4 |
| 20260507174053 | 19 | 270 | 1.6 | 8.0 | 0.00 | 0.00 | 0.00 | 65 | 1017.3 |
| 20260507173842 | 19 | 270 | 1.6 | 8.0 | 0.00 | 0.00 | 0.00 | 65 | 1017.3 |
| 20260507173452 | 19 | 182 | 1.6 | 4.8 | 0.00 | 0.00 | 0.00 | 66 | 1017.3 |
| 20260507173247 | 18 | 281 | 1.6 | 11.3 | 0.00 | 0.00 | 0.00 | 67 | 1017.3 |
| 20260507173037 | 18 | 281 | 1.6 | 11.3 | 0.00 | 0.00 | 0.00 | 68 | 1017.4 |
| 20260507172825 | 18 | 281 | 1.6 | 11.3 | 0.00 | 0.00 | 0.00 | 68 | 1017.4 |
| 20260507172613 | 18 | 225 | 1.6 | 9.7 | 0.00 | 0.00 | 0.00 | 69 | 1017.4 |
| 20260507172402 | 18 | 306 | 0.0 | 9.7 | 0.00 | 0.00 | 0.00 | 69 | 1017.4 |
| 20260507172009 | 18 | 287 | 0.0 | 6.4 | 0.00 | 0.00 | 0.00 | 71 | 1017.3 |
| 20260507171758 | 18 | 294 | 0.0 | 6.4 | 0.00 | 0.00 | 0.00 | 71 | 1017.3 |
| 20260507171548 | 18 | 306 | 1.6 | 4.8 | 0.00 | 0.00 | 0.00 | 72 | 1017.3 |
| 20260507171344 | 17 | 273 | 0.0 | 4.8 | 0.00 | 0.00 | 0.00 | 72 | 1017.4 |
| 20260507171138 | 17 | 273 | 0.0 | 4.8 | 0.00 | 0.00 | 0.00 | 74 | 1017.4 |
| 20260507170749 | 17 | 273 | 0.0 | 4.8 | 0.00 | 0.00 | 0.00 | 77 | 1017.4 |
| 20260507170538 | 17 | 265 | 0.0 | 4.8 | 0.00 | 0.00 | 0.00 | 79 | 1017.4 |
| 20260507170332 | 16 | 264 | 0.0 | 8.0 | 0.00 | 0.00 | 0.00 | 81 | 1017.4 |
| 20260507170124 | 16 | 264 | 0.0 | 8.0 | 0.00 | 0.00 | 0.00 | 85 | 1017.4 |
| 20260507165922 | 16 | 264 | 1.6 | 8.0 | 0.00 | 0.00 | 0.00 | 87 | 1017.4 |
| 20260507165710 | 16 | 273 | 1.6 | 8.0 | 0.00 | 0.00 | 0.00 | 88 | 1017.4 |
| 20260507165506 | 15 | 273 | 1.6 | 8.0 | 0.00 | 0.00 | 0.00 | 89 | 1017.4 |
| 20260507165254 | 15 | 271 | 1.6 | 8.0 | 0.00 | 0.00 | 0.00 | 91 | 1017.4 |
| 20260507165048 | 15 | 267 | 1.6 | 6.4 | 0.00 | 0.00 | 0.00 | 91 | 1017.4 |
| 20260507164843 | 15 | 267 | 1.6 | 11.3 | 0.00 | 0.00 | 0.00 | 92 | 1017.5 |
| 20260507164632 | 14 | 289 | 1.6 | 11.3 | 0.00 | 0.00 | 0.00 | 92 | 1017.5 |
| 20260507164422 | 14 | 290 | 1.6 | 11.3 | 0.00 | 0.00 | 0.00 | 92 | 1017.5 |
| 20260507164212 | 14 | 290 | 1.6 | 11.3 | 0.00 | 0.00 | 0.00 | 92 | 1017.5 |
| 20260507164003 | 14 | 289 | 1.6 | 11.3 | 0.00 | 0.00 | 0.00 | 92 | 1017.5 |
| 20260507163751 | 13 | 288 | 1.6 | 11.3 | 0.00 | 0.00 | 0.00 | 93 | 1017.5 |
| 20260507163547 | 13 | 288 | 1.6 | 11.3 | 0.00 | 0.00 | 0.00 | 92 | 1017.5 |
| 20260507163340 | 13 | 287 | 1.6 | 11.3 | 0.00 | 0.00 | 0.00 | 92 | 1017.5 |
| 20260507163136 | 13 | 286 | 0.0 | 11.3 | 0.00 | 0.00 | 0.00 | 92 | 1017.5 |
| 20260507162925 | 13 | 279 | 0.0 | 6.4 | 0.00 | 0.00 | 0.00 | 92 | 1017.5 |
| 20260507162724 | 13 | 279 | 0.0 | 6.4 | 0.00 | 0.00 | 0.00 | 92 | 1017.5 |
| 20260507162517 | 12 | 278 | 0.0 | 4.8 | 0.00 | 0.00 | 0.00 | 92 | 1017.5 |
| 20260507162314 | 12 | 278 | 0.0 | 4.8 | 0.00 | 0.00 | 0.00 | 92 | 1017.5 |
| 20260507162109 | 12 | 279 | 0.0 | 4.8 | 0.00 | 0.00 | 0.00 | 92 | 1017.5 |
| 20260507161712 | 12 | 286 | 0.0 | 1.6 | 0.00 | 0.00 | 0.00 | 92 | 1017.5 |
| 20260507161502 | 12 | 286 | 0.0 | 3.2 | 0.00 | 0.00 | 0.00 | 92 | 1017.5 |
| 20260507161250 | 12 | 286 | 0.0 | 6.4 | 0.00 | 0.00 | 0.00 | 92 | 1017.6 |
| 20260507160858 | 11 | 250 | 0.0 | 0.0 | 0.00 | 0.00 | 0.00 | 92 | 1017.6 |
| 20260507160655 | 11 | 238 | 0.0 | 0.0 | 0.00 | 0.00 | 0.00 | 92 | 1017.6 |
| 20260507160444 | 11 | 238 | 0.0 | 0.0 | 0.00 | 0.00 | 0.00 | 92 | 1017.6 |
| 20260507160050 | 11 | 238 | 0.0 | 0.0 | 0.00 | 0.00 | 0.00 | 91 | 1017.6 |
| 20260507155655 | 11 | 238 | 0.0 | 0.0 | 0.00 | 0.00 | 0.00 | 91 | 1017.7 |
| 20260507155446 | 11 | 238 | 0.0 | 0.0 | 0.00 | 0.00 | 0.00 | 91 | 1017.7 |
| 20260507155240 | 11 | 238 | 0.0 | 0.0 | 0.00 | 0.00 | 0.00 | 91 | 1017.7 |
| 20260507155027 | 11 | 238 | 0.0 | 0.0 | 0.00 | 0.00 | 0.00 | 91 | 1017.7 |
| 20260507154825 | 10 | 238 | 0.0 | 0.0 | 0.00 | 0.00 | 0.00 | 91 | 1017.8 |
| 20260507154620 | 10 | 238 | 0.0 | 0.0 | 0.00 | 0.00 | 0.00 | 91 | 1017.8 |
| 20260507154418 | 10 | 238 | 0.0 | 0.0 | 0.00 | 0.00 | 0.00 | 91 | 1017.8 |
| 20260507154206 | 10 | 238 | 0.0 | 0.0 | 0.00 | 0.00 | 0.00 | 91 | 1017.8 |
| 20260507153954 | 10 | 238 | 0.0 | 0.0 | 0.00 | 0.00 | 0.00 | 91 | 1017.8 |
| 20260507153608 | 10 | 238 | 0.0 | 0.0 | 0.00 | 0.00 | 0.00 | 91 | 1017.9 |
| 20260507153213 | 10 | 238 | 0.0 | 0.0 | 0.00 | 0.00 | 0.00 | 91 | 1017.8 |
| 20260507153002 | 10 | 238 | 0.0 | 0.0 | 0.00 | 0.00 | 0.00 | 91 | 1017.8 |
| 20260507152757 | 9 | 238 | 0.0 | 0.0 | 0.00 | 0.00 | 0.00 | 91 | 1017.8 |
| 20260507152549 | 9 | 238 | 0.0 | 0.0 | 0.00 | 0.00 | 0.00 | 91 | 1017.8 |
| 20260507152154 | 9 | 238 | 0.0 | 0.0 | 0.00 | 0.00 | 0.00 | 91 | 1017.7 |
| 20260507151800 | 8 | 238 | 0.0 | 0.0 | 0.00 | 0.00 | 0.00 | 90 | 1017.9 |
| 20260507151548 | 8 | 238 | 0.0 | 0.0 | 0.00 | 0.00 | 0.00 | 90 | 1017.9 |
| 20260507151338 | 8 | 238 | 0.0 | 0.0 | 0.00 | 0.00 | 0.00 | 90 | 1017.9 |
| 20260507151125 | 8 | 238 | 0.0 | 0.0 | 0.00 | 0.00 | 0.00 | 90 | 1017.9 |
| 20260507150729 | 8 | 238 | 0.0 | 0.0 | 0.00 | 0.00 | 0.00 | 90 | 1018.0 |
| 20260507150525 | 8 | 238 | 0.0 | 0.0 | 0.00 | 0.00 | 0.00 | 90 | 1017.9 |
| 20260507150316 | 8 | 238 | 0.0 | 0.0 | 0.00 | 0.00 | 0.00 | 90 | 1017.9 |
| 20260507150113 | 8 | 238 | 0.0 | 0.0 | 0.00 | 0.00 | 0.00 | 90 | 1018.0 |
| 20260507145901 | 8 | 238 | 0.0 | 0.0 | 0.00 | 0.00 | 0.00 | 90 | 1018.0 |
| 20260507145648 | 8 | 238 | 0.0 | 0.0 | 0.00 | 0.00 | 0.00 | 90 | 1018.0 |
| 20260507145250 | 8 | 238 | 0.0 | 0.0 | 0.00 | 0.00 | 0.00 | 90 | 1018.1 |
| 20260507145042 | 8 | 238 | 0.0 | 0.0 | 0.00 | 0.00 | 0.00 | 90 | 1018.1 |
| 20260507144841 | 8 | 238 | 0.0 | 0.0 | 0.00 | 0.00 | 0.00 | 90 | 1018.1 |
| 20260507144638 | 8 | 238 | 0.0 | 0.0 | 0.00 | 0.00 | 0.00 | 90 | 1018.0 |
| 20260507144431 | 8 | 238 | 0.0 | 0.0 | 0.00 | 0.00 | 0.00 | 90 | 1018.1 |
| 20260507144218 | 8 | 238 | 0.0 | 0.0 | 0.00 | 0.00 | 0.00 | 90 | 1018.1 |
| 20260507143824 | 8 | 238 | 0.0 | 0.0 | 0.00 | 0.00 | 0.00 | 90 | 1018.0 |
| 20260507143429 | 8 | 238 | 0.0 | 0.0 | 0.00 | 0.00 | 0.00 | 90 | 1018.0 |
| 20260507143219 | 8 | 238 | 0.0 | 0.0 | 0.00 | 0.00 | 0.00 | 90 | 1018.0 |
| 20260507143016 | 8 | 238 | 0.0 | 0.0 | 0.00 | 0.00 | 0.00 | 89 | 1018.0 |
| 20260507142815 | 8 | 238 | 0.0 | 0.0 | 0.00 | 0.00 | 0.00 | 89 | 1018.0 |
| 20260507142613 | 8 | 238 | 0.0 | 0.0 | 0.00 | 0.00 | 0.00 | 89 | 1018.0 |
| 20260507142402 | 8 | 238 | 0.0 | 0.0 | 0.00 | 0.00 | 0.00 | 89 | 1018.0 |
| 20260507142155 | 8 | 238 | 0.0 | 0.0 | 0.00 | 0.00 | 0.00 | 89 | 1018.0 |
| 20260507141944 | 8 | 238 | 0.0 | 0.0 | 0.00 | 0.00 | 0.00 | 89 | 1018.0 |
| 20260507141738 | 8 | 238 | 0.0 | 0.0 | 0.00 | 0.00 | 0.00 | 89 | 1018.0 |
| 20260507141529 | 7 | 238 | 0.0 | 0.0 | 0.00 | 0.00 | 0.00 | 89 | 1018.0 |
| 20260507141325 | 7 | 238 | 0.0 | 0.0 | 0.00 | 0.00 | 0.00 | 89 | 1017.9 |
| 20260507141121 | 8 | 238 | 0.0 | 0.0 | 0.00 | 0.00 | 0.00 | 89 | 1017.9 |
| 20260507140910 | 7 | 238 | 0.0 | 0.0 | 0.00 | 0.00 | 0.00 | 89 | 1018.0 |
| 20260507140658 | 7 | 238 | 0.0 | 0.0 | 0.00 | 0.00 | 0.00 | 89 | 1017.9 |
| 20260507140446 | 7 | 238 | 0.0 | 0.0 | 0.00 | 0.00 | 0.00 | 89 | 1018.0 |
| 20260507140243 | 7 | 238 | 0.0 | 0.0 | 0.00 | 0.00 | 0.00 | 89 | 1018.0 |
| 20260507135854 | 7 | 238 | 0.0 | 0.0 | 0.00 | 0.00 | 0.00 | 89 | 1017.9 |
| 20260507135645 | 7 | 238 | 0.0 | 0.0 | 0.00 | 0.00 | 0.00 | 89 | 1017.9 |
| 20260507135433 | 7 | 238 | 0.0 | 0.0 | 0.00 | 0.00 | 0.00 | 89 | 1018.0 |
| 20260507135226 | 7 | 238 | 0.0 | 0.0 | 0.00 | 0.00 | 0.00 | 89 | 1017.9 |
| 20260507135015 | 8 | 238 | 0.0 | 0.0 | 0.00 | 0.00 | 0.00 | 89 | 1018.0 |
| 20260507134805 | 8 | 238 | 0.0 | 0.0 | 0.00 | 0.00 | 0.00 | 89 | 1018.0 |
| 20260507134412 | 8 | 238 | 0.0 | 0.0 | 0.00 | 0.00 | 0.00 | 89 | 1017.9 |
| 20260507134208 | 8 | 238 | 0.0 | 0.0 | 0.00 | 0.00 | 0.00 | 89 | 1017.9 |
| 20260507134002 | 8 | 238 | 0.0 | 0.0 | 0.00 | 0.00 | 0.00 | 89 | 1017.8 |
| 20260507133753 | 8 | 238 | 0.0 | 0.0 | 0.00 | 0.00 | 0.00 | 89 | 1017.8 |
| 20260507133545 | 8 | 238 | 0.0 | 0.0 | 0.00 | 0.00 | 0.00 | 89 | 1017.9 |
| 20260507133339 | 8 | 238 | 0.0 | 0.0 | 0.00 | 0.00 | 0.00 | 89 | 1017.8 |
| 20260507133131 | 8 | 238 | 0.0 | 0.0 | 0.00 | 0.00 | 0.00 | 89 | 1017.8 |
| 20260507132921 | 8 | 238 | 0.0 | 0.0 | 0.00 | 0.00 | 0.00 | 89 | 1017.8 |
| 20260507132714 | 8 | 238 | 0.0 | 0.0 | 0.00 | 0.00 | 0.00 | 89 | 1017.7 |
| 20260507132501 | 8 | 238 | 0.0 | 0.0 | 0.00 | 0.00 | 0.00 | 89 | 1017.7 |
| 20260507132257 | 8 | 238 | 0.0 | 0.0 | 0.00 | 0.00 | 0.00 | 89 | 1017.7 |
| 20260507131726 | 8 | 238 | 0.0 | 0.0 | 0.00 | 0.00 | 0.00 | 89 | 1017.7 |
| 20260507131513 | 8 | 238 | 0.0 | 0.0 | 0.00 | 0.00 | 0.00 | 89 | 1017.7 |
| 20260507131309 | 8 | 238 | 0.0 | 0.0 | 0.00 | 0.00 | 0.00 | 89 | 1017.6 |
| 20260507131101 | 8 | 238 | 0.0 | 0.0 | 0.00 | 0.00 | 0.00 | 89 | 1017.7 |
| 20260507130858 | 8 | 238 | 0.0 | 0.0 | 0.00 | 0.00 | 0.00 | 89 | 1017.6 |
| 20260507130652 | 8 | 238 | 0.0 | 0.0 | 0.00 | 0.00 | 0.00 | 89 | 1017.6 |
| 20260507130441 | 8 | 238 | 0.0 | 0.0 | 0.00 | 0.00 | 0.00 | 89 | 1017.6 |
| 20260507130234 | 8 | 238 | 0.0 | 0.0 | 0.00 | 0.00 | 0.00 | 89 | 1017.7 |
| 20260507130021 | 8 | 238 | 0.0 | 0.0 | 0.00 | 0.00 | 0.00 | 89 | 1017.6 |
| 20260507125820 | 8 | 238 | 0.0 | 0.0 | 0.00 | 0.00 | 0.00 | 89 | 1017.6 |
| 20260507125428 | 8 | 238 | 0.0 | 0.0 | 0.00 | 0.00 | 0.00 | 89 | 1017.6 |
| 20260507125221 | 8 | 238 | 0.0 | 0.0 | 0.00 | 0.00 | 0.00 | 89 | 1017.6 |
| 20260507125017 | 8 | 238 | 0.0 | 0.0 | 0.00 | 0.00 | 0.00 | 88 | 1017.6 |
| 20260507124812 | 8 | 238 | 0.0 | 0.0 | 0.00 | 0.00 | 0.00 | 88 | 1017.6 |
| 20260507124608 | 8 | 238 | 0.0 | 0.0 | 0.00 | 0.00 | 0.00 | 88 | 1017.6 |
| 20260507124356 | 8 | 238 | 0.0 | 0.0 | 0.00 | 0.00 | 0.00 | 89 | 1017.6 |
| 20260507124152 | 8 | 238 | 0.0 | 0.0 | 0.00 | 0.00 | 0.00 | 89 | 1017.6 |
| 20260507123950 | 8 | 238 | 0.0 | 0.0 | 0.00 | 0.00 | 0.00 | 89 | 1017.6 |
| 20260507123745 | 8 | 238 | 0.0 | 0.0 | 0.00 | 0.00 | 0.00 | 89 | 1017.6 |
| 20260507123533 | 8 | 238 | 0.0 | 0.0 | 0.00 | 0.00 | 0.00 | 89 | 1017.6 |
| 20260507123331 | 8 | 238 | 0.0 | 0.0 | 0.00 | 0.00 | 0.00 | 89 | 1017.6 |
| 20260507123127 | 8 | 238 | 0.0 | 0.0 | 0.00 | 0.00 | 0.00 | 89 | 1017.5 |
| 20260507122920 | 8 | 238 | 0.0 | 0.0 | 0.00 | 0.00 | 0.00 | 89 | 1017.5 |
| 20260507122716 | 8 | 238 | 0.0 | 0.0 | 0.00 | 0.00 | 0.00 | 89 | 1017.6 |
| 20260507122513 | 8 | 238 | 0.0 | 0.0 | 0.00 | 0.00 | 0.00 | 89 | 1017.5 |
| 20260507122306 | 8 | 238 | 0.0 | 0.0 | 0.00 | 0.00 | 0.00 | 89 | 1017.5 |
| 20260507122052 | 8 | 238 | 0.0 | 0.0 | 0.00 | 0.00 | 0.00 | 89 | 1017.6 |
| 20260507121842 | 8 | 238 | 0.0 | 0.0 | 0.00 | 0.00 | 0.00 | 89 | 1017.5 |
| 20260507121631 | 8 | 238 | 0.0 | 0.0 | 0.00 | 0.00 | 0.00 | 88 | 1017.5 |
| 20260507121237 | 8 | 238 | 0.0 | 0.0 | 0.00 | 0.00 | 0.00 | 88 | 1017.7 |
| 20260507120933 | 8 | 238 | 0.0 | 0.0 | 0.00 | 0.00 | 0.00 | 88 | 1017.7 |
| 20260507120727 | 8 | 238 | 0.0 | 0.0 | 0.00 | 0.00 | 0.00 | 88 | 1017.6 |
| 20260507120520 | 8 | 238 | 0.0 | 0.0 | 0.00 | 0.00 | 0.00 | 88 | 1017.6 |
| 20260507120315 | 8 | 238 | 0.0 | 0.0 | 0.00 | 0.00 | 0.00 | 88 | 1017.6 |
| 20260507120111 | 8 | 238 | 0.0 | 0.0 | 0.00 | 0.00 | 0.00 | 88 | 1017.6 |
| 20260507115908 | 8 | 238 | 0.0 | 0.0 | 0.00 | 0.00 | 0.00 | 88 | 1017.6 |
| 20260507115700 | 8 | 238 | 0.0 | 0.0 | 0.00 | 0.00 | 0.00 | 88 | 1017.6 |
| 20260507115312 | 8 | 238 | 0.0 | 0.0 | 0.00 | 0.00 | 0.00 | 88 | 1017.6 |
| 20260507114926 | 8 | 238 | 0.0 | 0.0 | 0.00 | 0.00 | 0.00 | 88 | 1017.7 |
| 20260507114724 | 8 | 238 | 0.0 | 0.0 | 0.00 | 0.00 | 0.00 | 88 | 1017.6 |
| 20260507114520 | 8 | 238 | 0.0 | 0.0 | 0.00 | 0.00 | 0.00 | 88 | 1017.7 |
| 20260507114310 | 8 | 238 | 0.0 | 0.0 | 0.00 | 0.00 | 0.00 | 88 | 1017.7 |
| 20260507114106 | 8 | 238 | 0.0 | 0.0 | 0.00 | 0.00 | 0.00 | 88 | 1017.7 |
| 20260507113715 | 8 | 238 | 0.0 | 0.0 | 0.00 | 0.00 | 0.00 | 88 | 1017.7 |
| 20260507113326 | 8 | 238 | 0.0 | 0.0 | 0.00 | 0.00 | 0.00 | 88 | 1017.7 |
| 20260507113122 | 8 | 238 | 0.0 | 0.0 | 0.00 | 0.00 | 0.00 | 88 | 1017.7 |
| 20260507112912 | 8 | 238 | 0.0 | 0.0 | 0.00 | 0.00 | 0.00 | 88 | 1017.8 |
| 20260507112704 | 8 | 238 | 0.0 | 0.0 | 0.00 | 0.00 | 0.00 | 88 | 1017.7 |
| 20260507112455 | 8 | 238 | 0.0 | 0.0 | 0.00 | 0.00 | 0.00 | 88 | 1017.8 |
| 20260507112243 | 8 | 238 | 0.0 | 0.0 | 0.00 | 0.00 | 0.00 | 88 | 1017.8 |
| 20260507112031 | 8 | 238 | 0.0 | 0.0 | 0.00 | 0.00 | 0.00 | 88 | 1017.7 |
| 20260507111644 | 8 | 238 | 0.0 | 0.0 | 0.00 | 0.00 | 0.00 | 88 | 1017.7 |
| 20260507111435 | 8 | 238 | 0.0 | 0.0 | 0.00 | 0.00 | 0.00 | 88 | 1017.8 |
| 20260507111226 | 8 | 238 | 0.0 | 0.0 | 0.00 | 0.00 | 0.00 | 88 | 1017.8 |
| 20260507110836 | 8 | 238 | 0.0 | 0.0 | 0.00 | 0.00 | 0.00 | 88 | 1017.8 |
| 20260507110625 | 8 | 238 | 0.0 | 0.0 | 0.00 | 0.00 | 0.00 | 88 | 1017.7 |
| 20260507110236 | 8 | 238 | 0.0 | 0.0 | 0.00 | 0.00 | 0.00 | 88 | 1017.7 |
| 20260507105845 | 8 | 238 | 0.0 | 0.0 | 0.00 | 0.00 | 0.00 | 88 | 1017.7 |
| 20260507105644 | 8 | 238 | 0.0 | 0.0 | 0.00 | 0.00 | 0.00 | 88 | 1017.6 |
| 20260507105439 | 8 | 238 | 0.0 | 0.0 | 0.00 | 0.00 | 0.00 | 88 | 1017.6 |
| 20260507105050 | 8 | 238 | 0.0 | 0.0 | 0.00 | 0.00 | 0.00 | 88 | 1017.7 |
| 20260507104703 | 8 | 238 | 0.0 | 0.0 | 0.00 | 0.00 | 0.00 | 88 | 1017.8 |
| 20260507104450 | 8 | 238 | 0.0 | 0.0 | 0.00 | 0.00 | 0.00 | 88 | 1017.7 |
| 20260507104239 | 8 | 238 | 0.0 | 0.0 | 0.00 | 0.00 | 0.00 | 88 | 1017.8 |
| 20260507104034 | 8 | 238 | 0.0 | 0.0 | 0.00 | 0.00 | 0.00 | 88 | 1017.8 |
| 20260507103822 | 8 | 238 | 0.0 | 0.0 | 0.00 | 0.00 | 0.00 | 88 | 1017.8 |
| 20260507103619 | 8 | 238 | 0.0 | 0.0 | 0.00 | 0.00 | 0.00 | 88 | 1017.8 |
| 20260507103407 | 9 | 238 | 0.0 | 0.0 | 0.00 | 0.00 | 0.00 | 88 | 1017.8 |
| 20260507103206 | 9 | 238 | 0.0 | 0.0 | 0.00 | 0.00 | 0.00 | 88 | 1017.8 |
| 20260507103004 | 9 | 238 | 0.0 | 0.0 | 0.00 | 0.00 | 0.00 | 88 | 1017.8 |
| 20260507102756 | 9 | 238 | 0.0 | 0.0 | 0.00 | 0.00 | 0.00 | 88 | 1017.8 |
| 20260507102553 | 9 | 238 | 0.0 | 0.0 | 0.00 | 0.00 | 0.00 | 88 | 1017.8 |
| 20260507102347 | 9 | 238 | 0.0 | 0.0 | 0.00 | 0.00 | 0.00 | 88 | 1017.8 |
| 20260507101952 | 9 | 238 | 0.0 | 0.0 | 0.00 | 0.00 | 0.00 | 88 | 1017.8 |
| 20260507101749 | 9 | 238 | 0.0 | 0.0 | 0.00 | 0.00 | 0.00 | 88 | 1017.8 |
| 20260507101206 | 9 | 238 | 0.0 | 0.0 | 0.00 | 0.00 | 0.00 | 88 | 1017.8 |
| 20260507100957 | 9 | 238 | 0.0 | 0.0 | 0.00 | 0.00 | 0.00 | 88 | 1017.8 |
| 20260507100744 | 9 | 238 | 0.0 | 0.0 | 0.00 | 0.00 | 0.00 | 88 | 1017.9 |
| 20260507100538 | 9 | 238 | 0.0 | 0.0 | 0.00 | 0.00 | 0.00 | 88 | 1017.8 |
| 20260507100147 | 9 | 238 | 0.0 | 0.0 | 0.00 | 0.00 | 0.00 | 87 | 1017.8 |
| 20260507095944 | 9 | 238 | 0.0 | 0.0 | 0.00 | 0.00 | 0.00 | 87 | 1017.8 |
| 20260507095740 | 9 | 238 | 0.0 | 0.0 | 0.00 | 0.00 | 0.00 | 87 | 1017.8 |
| 20260507095539 | 9 | 238 | 0.0 | 0.0 | 0.00 | 0.00 | 0.00 | 87 | 1017.9 |
| 20260507095331 | 9 | 238 | 0.0 | 0.0 | 0.00 | 0.00 | 0.00 | 87 | 1017.8 |
| 20260507095125 | 9 | 238 | 0.0 | 0.0 | 0.00 | 0.00 | 0.00 | 87 | 1017.9 |
| 20260507094921 | 9 | 238 | 0.0 | 0.0 | 0.00 | 0.00 | 0.00 | 87 | 1017.8 |
| 20260507094709 | 9 | 238 | 0.0 | 0.0 | 0.00 | 0.00 | 0.00 | 87 | 1017.9 |
| 20260507094504 | 9 | 238 | 0.0 | 0.0 | 0.00 | 0.00 | 0.00 | 87 | 1017.9 |
| 20260507094251 | 9 | 238 | 0.0 | 0.0 | 0.00 | 0.00 | 0.00 | 87 | 1017.9 |
| 20260507094044 | 9 | 238 | 0.0 | 0.0 | 0.00 | 0.00 | 0.00 | 87 | 1017.9 |
| 20260507093833 | 9 | 238 | 0.0 | 0.0 | 0.00 | 0.00 | 0.00 | 87 | 1017.9 |
| 20260507093629 | 9 | 238 | 0.0 | 0.0 | 0.00 | 0.00 | 0.00 | 87 | 1018.0 |
| 20260507093416 | 9 | 238 | 0.0 | 0.0 | 0.00 | 0.00 | 0.00 | 87 | 1018.0 |
| 20260507093205 | 9 | 238 | 0.0 | 0.0 | 0.00 | 0.00 | 0.00 | 87 | 1018.0 |
| 20260507093001 | 9 | 238 | 0.0 | 0.0 | 0.00 | 0.00 | 0.00 | 87 | 1018.1 |
| 20260507092611 | 9 | 238 | 0.0 | 0.0 | 0.00 | 0.00 | 0.00 | 87 | 1018.1 |
| 20260507092407 | 9 | 238 | 0.0 | 0.0 | 0.00 | 0.00 | 0.00 | 87 | 1018.2 |
| 20260507092156 | 9 | 238 | 0.0 | 0.0 | 0.00 | 0.00 | 0.00 | 87 | 1018.2 |
| 20260507091947 | 9 | 238 | 0.0 | 0.0 | 0.00 | 0.00 | 0.00 | 87 | 1018.2 |
| 20260507091739 | 10 | 238 | 0.0 | 0.0 | 0.00 | 0.00 | 0.00 | 87 | 1018.2 |
| 20260507091533 | 10 | 238 | 0.0 | 0.0 | 0.00 | 0.00 | 0.00 | 87 | 1018.3 |
| 20260507091145 | 10 | 238 | 0.0 | 0.0 | 0.00 | 0.00 | 0.00 | 87 | 1018.3 |
| 20260507090935 | 10 | 238 | 0.0 | 0.0 | 0.00 | 0.00 | 0.00 | 87 | 1018.3 |
| 20260507090731 | 10 | 238 | 0.0 | 0.0 | 0.00 | 0.00 | 0.00 | 87 | 1018.4 |
| 20260507090527 | 10 | 238 | 0.0 | 0.0 | 0.00 | 0.00 | 0.00 | 87 | 1018.4 |
| 20260507090103 | 10 | 238 | 0.0 | 0.0 | 0.00 | 0.00 | 0.00 | 87 | 1018.4 |
| 20260507085855 | 10 | 238 | 0.0 | 0.0 | 0.00 | 0.00 | 0.00 | 87 | 1018.4 |
| 20260507085458 | 10 | 238 | 0.0 | 0.0 | 0.00 | 0.00 | 0.00 | 87 | 1018.4 |
| 20260507085248 | 10 | 238 | 0.0 | 0.0 | 0.00 | 0.00 | 0.00 | 87 | 1018.4 |
| 20260507085043 | 10 | 238 | 0.0 | 0.0 | 0.00 | 0.00 | 0.00 | 87 | 1018.4 |
| 20260507084839 | 10 | 238 | 0.0 | 0.0 | 0.00 | 0.00 | 0.00 | 87 | 1018.4 |
| 20260507084630 | 10 | 238 | 0.0 | 0.0 | 0.00 | 0.00 | 0.00 | 87 | 1018.4 |
| 20260507084427 | 10 | 238 | 0.0 | 0.0 | 0.00 | 0.00 | 0.00 | 87 | 1018.4 |
| 20260507084223 | 10 | 238 | 0.0 | 0.0 | 0.00 | 0.00 | 0.00 | 86 | 1018.4 |
| 20260507084013 | 10 | 238 | 0.0 | 0.0 | 0.00 | 0.00 | 0.00 | 86 | 1018.4 |
| 20260507083802 | 10 | 238 | 0.0 | 0.0 | 0.00 | 0.00 | 0.00 | 86 | 1018.4 |
| 20260507083558 | 10 | 238 | 0.0 | 0.0 | 0.00 | 0.00 | 0.00 | 86 | 1018.4 |
| 20260507083208 | 10 | 238 | 0.0 | 0.0 | 0.00 | 0.00 | 0.00 | 86 | 1018.5 |
| 20260507083001 | 10 | 238 | 0.0 | 0.0 | 0.00 | 0.00 | 0.00 | 86 | 1018.5 |
| 20260507082757 | 10 | 238 | 0.0 | 0.0 | 0.00 | 0.00 | 0.00 | 86 | 1018.4 |
| 20260507082553 | 10 | 238 | 0.0 | 0.0 | 0.00 | 0.00 | 0.00 | 86 | 1018.5 |
| 20260507082341 | 10 | 238 | 0.0 | 0.0 | 0.00 | 0.00 | 0.00 | 86 | 1018.4 |
| 20260507082132 | 10 | 238 | 0.0 | 0.0 | 0.00 | 0.00 | 0.00 | 86 | 1018.4 |
| 20260507081925 | 10 | 238 | 0.0 | 0.0 | 0.00 | 0.00 | 0.00 | 86 | 1018.5 |
| 20260507081712 | 10 | 238 | 0.0 | 0.0 | 0.00 | 0.00 | 0.00 | 86 | 1018.4 |
| 20260507081459 | 10 | 238 | 0.0 | 0.0 | 0.00 | 0.00 | 0.00 | 86 | 1018.4 |
| 20260507081246 | 10 | 238 | 0.0 | 0.0 | 0.00 | 0.00 | 0.00 | 86 | 1018.4 |
| 20260507081039 | 10 | 238 | 0.0 | 0.0 | 0.00 | 0.00 | 0.00 | 86 | 1018.4 |
| 20260507080836 | 10 | 238 | 0.0 | 0.0 | 0.00 | 0.00 | 0.00 | 86 | 1018.4 |
| 20260507080624 | 10 | 238 | 0.0 | 0.0 | 0.00 | 0.00 | 0.00 | 86 | 1018.4 |
| 20260507080422 | 10 | 238 | 0.0 | 0.0 | 0.00 | 0.00 | 0.00 | 86 | 1018.4 |
| 20260507080219 | 10 | 238 | 0.0 | 0.0 | 0.00 | 0.00 | 0.00 | 86 | 1018.4 |
| 20260507075825 | 10 | 238 | 0.0 | 0.0 | 0.00 | 0.00 | 0.00 | 86 | 1018.4 |
| 20260507075620 | 10 | 238 | 0.0 | 0.0 | 0.00 | 0.00 | 0.00 | 86 | 1018.4 |
| 20260507075225 | 10 | 238 | 0.0 | 0.0 | 0.00 | 0.00 | 0.00 | 85 | 1018.4 |
| 20260507074835 | 10 | 238 | 0.0 | 0.0 | 0.00 | 0.00 | 0.00 | 85 | 1018.4 |
| 20260507074632 | 10 | 238 | 0.0 | 0.0 | 0.00 | 0.00 | 0.00 | 85 | 1018.4 |
| 20260507074427 | 10 | 238 | 0.0 | 0.0 | 0.00 | 0.00 | 0.00 | 85 | 1018.4 |
| 20260507074224 | 10 | 238 | 0.0 | 0.0 | 0.00 | 0.00 | 0.00 | 85 | 1018.4 |
| 20260507074011 | 10 | 238 | 0.0 | 0.0 | 0.00 | 0.00 | 0.00 | 85 | 1018.4 |
| 20260507073807 | 10 | 238 | 0.0 | 0.0 | 0.00 | 0.00 | 0.00 | 85 | 1018.4 |
| 20260507073410 | 10 | 238 | 0.0 | 0.0 | 0.00 | 0.00 | 0.00 | 85 | 1018.4 |
| 20260507073206 | 10 | 238 | 0.0 | 0.0 | 0.00 | 0.00 | 0.00 | 85 | 1018.4 |
| 20260507073004 | 10 | 238 | 0.0 | 0.0 | 0.00 | 0.00 | 0.00 | 85 | 1018.4 |
| 20260507072751 | 10 | 238 | 0.0 | 0.0 | 0.00 | 0.00 | 0.00 | 85 | 1018.4 |
| 20260507072541 | 10 | 238 | 0.0 | 0.0 | 0.00 | 0.00 | 0.00 | 85 | 1018.4 |
| 20260507072333 | 10 | 238 | 0.0 | 0.0 | 0.00 | 0.00 | 0.00 | 85 | 1018.4 |
| 20260507071938 | 10 | 238 | 0.0 | 0.0 | 0.00 | 0.00 | 0.00 | 85 | 1018.4 |
| 20260507071726 | 10 | 238 | 0.0 | 0.0 | 0.00 | 0.00 | 0.00 | 85 | 1018.4 |
| 20260507071338 | 10 | 238 | 0.0 | 0.0 | 0.00 | 0.00 | 0.00 | 85 | 1018.4 |
| 20260507071132 | 10 | 238 | 0.0 | 0.0 | 0.00 | 0.00 | 0.00 | 85 | 1018.4 |
| 20260507070921 | 10 | 238 | 0.0 | 0.0 | 0.00 | 0.00 | 0.00 | 85 | 1018.4 |
| 20260507070712 | 10 | 238 | 0.0 | 0.0 | 0.00 | 0.00 | 0.00 | 84 | 1018.4 |
| 20260507065945 | 10 | 238 | 0.0 | 0.0 | 0.00 | 0.00 | 0.00 | 84 | 1018.4 |
| 20260507065734 | 10 | 238 | 0.0 | 0.0 | 0.00 | 0.00 | 0.00 | 84 | 1018.5 |
| 20260507065532 | 11 | 238 | 0.0 | 0.0 | 0.00 | 0.00 | 0.00 | 84 | 1018.4 |
| 20260507065327 | 11 | 238 | 0.0 | 0.0 | 0.00 | 0.00 | 0.00 | 84 | 1018.5 |
| 20260507065114 | 11 | 238 | 0.0 | 0.0 | 0.00 | 0.00 | 0.00 | 84 | 1018.5 |
| 20260507064911 | 11 | 238 | 0.0 | 0.0 | 0.00 | 0.00 | 0.00 | 84 | 1018.5 |
| 20260507064707 | 11 | 238 | 0.0 | 0.0 | 0.00 | 0.00 | 0.00 | 84 | 1018.5 |
| 20260507064312 | 11 | 238 | 0.0 | 0.0 | 0.00 | 0.00 | 0.00 | 83 | 1018.5 |
| 20260507064107 | 11 | 238 | 0.0 | 0.0 | 0.00 | 0.00 | 0.00 | 83 | 1018.4 |
| 20260507063901 | 11 | 238 | 0.0 | 0.0 | 0.00 | 0.00 | 0.00 | 83 | 1018.5 |
| 20260507063657 | 11 | 238 | 0.0 | 0.0 | 0.00 | 0.00 | 0.00 | 83 | 1018.4 |
| 20260507063454 | 11 | 238 | 0.0 | 0.0 | 0.00 | 0.00 | 0.00 | 83 | 1018.5 |
| 20260507063249 | 11 | 238 | 0.0 | 0.0 | 0.00 | 0.00 | 0.00 | 83 | 1018.4 |
| 20260507063045 | 11 | 238 | 0.0 | 0.0 | 0.00 | 0.00 | 0.00 | 83 | 1018.4 |
| 20260507062841 | 11 | 238 | 0.0 | 0.0 | 0.00 | 0.00 | 0.00 | 83 | 1018.4 |
| 20260507062635 | 11 | 238 | 0.0 | 0.0 | 0.00 | 0.00 | 0.00 | 83 | 1018.4 |
| 20260507062426 | 11 | 238 | 0.0 | 0.0 | 0.00 | 0.00 | 0.00 | 82 | 1018.3 |
| 20260507062032 | 11 | 238 | 0.0 | 0.0 | 0.00 | 0.00 | 0.00 | 82 | 1018.4 |
| 20260507061824 | 11 | 238 | 0.0 | 0.0 | 0.00 | 0.00 | 0.00 | 82 | 1018.3 |
| 20260507061613 | 11 | 238 | 0.0 | 0.0 | 0.00 | 0.00 | 0.00 | 82 | 1018.4 |
| 20260507061404 | 11 | 238 | 0.0 | 0.0 | 0.00 | 0.00 | 0.00 | 82 | 1018.4 |
| 20260507061153 | 11 | 238 | 0.0 | 0.0 | 0.00 | 0.00 | 0.00 | 82 | 1018.4 |
| 20260507060950 | 11 | 238 | 0.0 | 0.0 | 0.00 | 0.00 | 0.00 | 82 | 1018.4 |
| 20260507060743 | 11 | 238 | 0.0 | 0.0 | 0.00 | 0.00 | 0.00 | 82 | 1018.4 |
| 20260507060356 | 11 | 238 | 0.0 | 0.0 | 0.00 | 0.00 | 0.00 | 82 | 1018.4 |
| 20260507060143 | 11 | 238 | 0.0 | 0.0 | 0.00 | 0.00 | 0.00 | 81 | 1018.4 |
| 20260507055940 | 11 | 238 | 0.0 | 0.0 | 0.00 | 0.00 | 0.00 | 81 | 1018.3 |
| 20260507055730 | 11 | 238 | 0.0 | 0.0 | 0.00 | 0.00 | 0.00 | 81 | 1018.3 |
| 20260507055528 | 11 | 238 | 0.0 | 0.0 | 0.00 | 0.00 | 0.00 | 81 | 1018.4 |
| 20260507055315 | 11 | 238 | 0.0 | 0.0 | 0.00 | 0.00 | 0.00 | 81 | 1018.3 |
| 20260507055102 | 11 | 238 | 0.0 | 0.0 | 0.00 | 0.00 | 0.00 | 81 | 1018.4 |
| 20260507054857 | 11 | 238 | 0.0 | 0.0 | 0.00 | 0.00 | 0.00 | 81 | 1018.4 |
| 20260507054656 | 12 | 238 | 0.0 | 0.0 | 0.00 | 0.00 | 0.00 | 81 | 1018.5 |
| 20260507054452 | 12 | 238 | 0.0 | 0.0 | 0.00 | 0.00 | 0.00 | 81 | 1018.5 |
| 20260507054240 | 12 | 238 | 0.0 | 0.0 | 0.00 | 0.00 | 0.00 | 80 | 1018.5 |
| 20260507054035 | 12 | 238 | 0.0 | 0.0 | 0.00 | 0.00 | 0.00 | 80 | 1018.4 |
| 20260507053822 | 12 | 238 | 0.0 | 0.0 | 0.00 | 0.00 | 0.00 | 80 | 1018.4 |
| 20260507053618 | 12 | 238 | 0.0 | 0.0 | 0.00 | 0.00 | 0.00 | 80 | 1018.5 |
| 20260507053226 | 12 | 238 | 0.0 | 0.0 | 0.00 | 0.00 | 0.00 | 80 | 1018.4 |
| 20260507053020 | 12 | 238 | 0.0 | 0.0 | 0.00 | 0.00 | 0.00 | 80 | 1018.3 |
| 20260507052253 | 12 | 238 | 0.0 | 0.0 | 0.00 | 0.00 | 0.00 | 79 | 1018.3 |
| 20260507052044 | 12 | 238 | 0.0 | 0.0 | 0.00 | 0.00 | 0.00 | 79 | 1018.4 |
| 20260507051647 | 12 | 238 | 0.0 | 0.0 | 0.00 | 0.00 | 0.00 | 79 | 1018.3 |
| 20260507051442 | 12 | 238 | 0.0 | 0.0 | 0.00 | 0.00 | 0.00 | 79 | 1018.4 |
| 20260507051240 | 12 | 238 | 0.0 | 0.0 | 0.00 | 0.00 | 0.00 | 79 | 1018.4 |
| 20260507051033 | 12 | 238 | 0.0 | 0.0 | 0.00 | 0.00 | 0.00 | 79 | 1018.4 |
| 20260507050636 | 13 | 238 | 0.0 | 0.0 | 0.00 | 0.00 | 0.00 | 78 | 1018.6 |
| 20260507050425 | 13 | 238 | 0.0 | 0.0 | 0.00 | 0.00 | 0.00 | 78 | 1018.6 |
| 20260507050221 | 13 | 238 | 0.0 | 0.0 | 0.00 | 0.00 | 0.00 | 78 | 1018.6 |
| 20260507050012 | 13 | 238 | 0.0 | 0.0 | 0.00 | 0.00 | 0.00 | 78 | 1018.6 |
| 20260507045430 | 13 | 238 | 0.0 | 0.0 | 0.00 | 0.00 | 0.00 | 77 | 1018.5 |
| 20260507045035 | 13 | 238 | 0.0 | 0.0 | 0.00 | 0.00 | 0.00 | 77 | 1018.5 |
| 20260507044828 | 13 | 238 | 0.0 | 0.0 | 0.00 | 0.00 | 0.00 | 77 | 1018.5 |
| 20260507044626 | 13 | 238 | 0.0 | 0.0 | 0.00 | 0.00 | 0.00 | 77 | 1018.4 |
| 20260507044228 | 13 | 238 | 0.0 | 0.0 | 0.00 | 0.00 | 0.00 | 77 | 1018.4 |
| 20260507043834 | 13 | 238 | 0.0 | 0.0 | 0.00 | 0.00 | 0.00 | 76 | 1018.3 |
| 20260507043623 | 14 | 238 | 0.0 | 0.0 | 0.00 | 0.00 | 0.00 | 76 | 1018.3 |
| 20260507043419 | 14 | 238 | 0.0 | 0.0 | 0.00 | 0.00 | 0.00 | 76 | 1018.3 |
| 20260507043213 | 14 | 238 | 0.0 | 0.0 | 0.00 | 0.00 | 0.00 | 76 | 1018.2 |
| 20260507043009 | 14 | 238 | 0.0 | 0.0 | 0.00 | 0.00 | 0.00 | 76 | 1018.2 |
| 20260507042806 | 14 | 238 | 0.0 | 0.0 | 0.00 | 0.00 | 0.00 | 75 | 1018.2 |
| 20260507042603 | 14 | 238 | 0.0 | 0.0 | 0.00 | 0.00 | 0.00 | 75 | 1018.2 |
| 20260507042350 | 15 | 238 | 0.0 | 0.0 | 0.00 | 0.00 | 0.00 | 75 | 1018.2 |
| 20260507042138 | 15 | 238 | 0.0 | 0.0 | 0.00 | 0.00 | 0.00 | 75 | 1018.1 |
| 20260507041931 | 15 | 238 | 0.0 | 0.0 | 0.00 | 0.00 | 0.00 | 75 | 1018.1 |
| 20260507041543 | 15 | 238 | 0.0 | 0.0 | 0.00 | 0.00 | 0.00 | 75 | 1018.0 |
| 20260507041333 | 15 | 238 | 0.0 | 0.0 | 0.00 | 0.00 | 0.00 | 74 | 1018.0 |
| 20260507041125 | 15 | 238 | 0.0 | 0.0 | 0.00 | 0.00 | 0.00 | 74 | 1018.0 |
| 20260507040922 | 15 | 238 | 0.0 | 0.0 | 0.00 | 0.00 | 0.00 | 74 | 1017.9 |
| 20260507040715 | 15 | 238 | 0.0 | 0.0 | 0.00 | 0.00 | 0.00 | 74 | 1017.9 |
| 20260507040502 | 15 | 238 | 0.0 | 0.0 | 0.00 | 0.00 | 0.00 | 74 | 1017.8 |
| 20260507040256 | 15 | 238 | 0.0 | 0.0 | 0.00 | 0.00 | 0.00 | 73 | 1017.8 |
| 20260507035859 | 16 | 238 | 0.0 | 0.0 | 0.00 | 0.00 | 0.00 | 73 | 1017.8 |
| 20260507035506 | 16 | 238 | 0.0 | 0.0 | 0.00 | 0.00 | 0.00 | 73 | 1017.8 |
| 20260507035119 | 16 | 238 | 0.0 | 0.0 | 0.00 | 0.00 | 0.00 | 73 | 1017.8 |
| 20260507034911 | 16 | 238 | 0.0 | 0.0 | 0.00 | 0.00 | 0.00 | 73 | 1017.8 |
| 20260507034706 | 16 | 238 | 0.0 | 0.0 | 0.00 | 0.00 | 0.00 | 72 | 1017.8 |
| 20260507034505 | 16 | 238 | 0.0 | 0.0 | 0.00 | 0.00 | 0.00 | 72 | 1017.8 |
| 20260507034300 | 16 | 238 | 0.0 | 0.0 | 0.00 | 0.00 | 0.00 | 72 | 1017.8 |
| 20260507034049 | 16 | 238 | 0.0 | 0.0 | 0.00 | 0.00 | 0.00 | 72 | 1017.8 |
| 20260507033703 | 16 | 238 | 0.0 | 0.0 | 0.00 | 0.00 | 0.00 | 72 | 1017.7 |
| 20260507033450 | 17 | 238 | 0.0 | 0.0 | 0.00 | 0.00 | 0.00 | 71 | 1017.8 |
| 20260507033056 | 17 | 238 | 0.0 | 0.0 | 0.00 | 0.00 | 0.00 | 71 | 1017.7 |
| 20260507032854 | 17 | 238 | 0.0 | 0.0 | 0.00 | 0.00 | 0.00 | 71 | 1017.7 |
| 20260507032652 | 17 | 238 | 0.0 | 0.0 | 0.00 | 0.00 | 0.00 | 71 | 1017.7 |
| 20260507032442 | 17 | 238 | 0.0 | 0.0 | 0.00 | 0.00 | 0.00 | 70 | 1017.7 |
| 20260507032230 | 17 | 238 | 0.0 | 0.0 | 0.00 | 0.00 | 0.00 | 70 | 1017.6 |
| 20260507032027 | 17 | 238 | 0.0 | 0.0 | 0.00 | 0.00 | 0.00 | 70 | 1017.6 |
| 20260507031637 | 17 | 238 | 0.0 | 0.0 | 0.00 | 0.00 | 0.00 | 69 | 1017.6 |
| 20260507031245 | 17 | 238 | 0.0 | 0.0 | 0.00 | 0.00 | 0.00 | 68 | 1017.6 |
| 20260507031033 | 17 | 238 | 0.0 | 0.0 | 0.00 | 0.00 | 0.00 | 68 | 1017.5 |
| 20260507030450 | 17 | 238 | 0.0 | 1.6 | 0.00 | 0.00 | 0.00 | 69 | 1017.5 |
| 20260507030246 | 17 | 238 | 0.0 | 0.0 | 0.00 | 0.00 | 0.00 | 69 | 1017.4 |
| 20260507030040 | 17 | 238 | 0.0 | 0.0 | 0.00 | 0.00 | 0.00 | 69 | 1017.5 |
| 20260507025507 | 18 | 238 | 0.0 | 0.0 | 0.00 | 0.00 | 0.00 | 68 | 1017.4 |
| 20260507025118 | 18 | 238 | 0.0 | 1.6 | 0.00 | 0.00 | 0.00 | 69 | 1017.4 |
| 20260507024910 | 18 | 238 | 0.0 | 0.0 | 0.00 | 0.00 | 0.00 | 68 | 1017.4 |
| 20260507024703 | 18 | 238 | 0.0 | 0.0 | 0.00 | 0.00 | 0.00 | 68 | 1017.3 |
| 20260507024502 | 18 | 238 | 0.0 | 0.0 | 0.00 | 0.00 | 0.00 | 68 | 1017.3 |
| 20260507024250 | 18 | 238 | 0.0 | 0.0 | 0.00 | 0.00 | 0.00 | 68 | 1017.3 |
| 20260507024039 | 18 | 238 | 0.0 | 0.0 | 0.00 | 0.00 | 0.00 | 68 | 1017.3 |
| 20260507023831 | 18 | 238 | 0.0 | 0.0 | 0.00 | 0.00 | 0.00 | 68 | 1017.3 |
| 20260507023627 | 18 | 238 | 0.0 | 0.0 | 0.00 | 0.00 | 0.00 | 68 | 1017.3 |
| 20260507023422 | 18 | 238 | 0.0 | 0.0 | 0.00 | 0.00 | 0.00 | 68 | 1017.3 |
| 20260507023217 | 18 | 238 | 0.0 | 0.0 | 0.00 | 0.00 | 0.00 | 68 | 1017.3 |
| 20260507023010 | 18 | 238 | 0.0 | 0.0 | 0.00 | 0.00 | 0.00 | 68 | 1017.3 |
| 20260507022618 | 18 | 238 | 0.0 | 0.0 | 0.00 | 0.00 | 0.00 | 67 | 1017.3 |
| 20260507022412 | 18 | 238 | 0.0 | 0.0 | 0.00 | 0.00 | 0.00 | 66 | 1017.2 |
| 20260507022024 | 18 | 238 | 0.0 | 0.0 | 0.00 | 0.00 | 0.00 | 66 | 1017.1 |
| 20260507021815 | 18 | 238 | 0.0 | 0.0 | 0.00 | 0.00 | 0.00 | 66 | 1017.2 |
| 20260507021608 | 18 | 238 | 0.0 | 0.0 | 0.00 | 0.00 | 0.00 | 66 | 1017.3 |
| 20260507021402 | 19 | 238 | 0.0 | 0.0 | 0.00 | 0.00 | 0.00 | 65 | 1017.2 |
| 20260507021157 | 19 | 238 | 0.0 | 0.0 | 0.00 | 0.00 | 0.00 | 64 | 1017.3 |
| 20260507020949 | 19 | 238 | 0.0 | 0.0 | 0.00 | 0.00 | 0.00 | 64 | 1017.3 |
| 20260507020738 | 19 | 238 | 0.0 | 0.0 | 0.00 | 0.00 | 0.00 | 63 | 1017.1 |
| 20260507020527 | 19 | 238 | 0.0 | 0.0 | 0.00 | 0.00 | 0.00 | 63 | 1017.2 |
| 20260507020317 | 19 | 238 | 0.0 | 0.0 | 0.00 | 0.00 | 0.00 | 63 | 1017.1 |
| 20260507020107 | 19 | 238 | 0.0 | 0.0 | 0.00 | 0.00 | 0.00 | 63 | 1017.2 |
| 20260507015858 | 19 | 238 | 0.0 | 0.0 | 0.00 | 0.00 | 0.00 | 63 | 1017.2 |
| 20260507015651 | 19 | 238 | 0.0 | 0.0 | 0.00 | 0.00 | 0.00 | 63 | 1017.1 |
| 20260507015445 | 19 | 238 | 0.0 | 6.4 | 0.00 | 0.00 | 0.00 | 62 | 1017.1 |
| 20260507015054 | 20 | 238 | 1.6 | 8.0 | 0.00 | 0.00 | 0.00 | 62 | 1017.0 |
| 20260507014846 | 20 | 238 | 1.6 | 8.0 | 0.00 | 0.00 | 0.00 | 62 | 1017.1 |
| 20260507014634 | 20 | 237 | 0.0 | 8.0 | 0.00 | 0.00 | 0.00 | 62 | 1017.0 |
| 20260507014431 | 20 | 238 | 1.6 | 8.0 | 0.00 | 0.00 | 0.00 | 62 | 1017.1 |
| 20260507014220 | 20 | 246 | 1.6 | 8.0 | 0.00 | 0.00 | 0.00 | 62 | 1017.0 |
| 20260507013827 | 20 | 246 | 1.6 | 8.0 | 0.00 | 0.00 | 0.00 | 62 | 1017.0 |
| 20260507013619 | 20 | 246 | 1.6 | 8.0 | 0.00 | 0.00 | 0.00 | 62 | 1017.1 |
| 20260507013408 | 20 | 217 | 0.0 | 6.4 | 0.00 | 0.00 | 0.00 | 62 | 1017.1 |
| 20260507013017 | 20 | 217 | 0.0 | 3.2 | 0.00 | 0.00 | 0.00 | 62 | 1017.1 |
| 20260507012813 | 20 | 217 | 1.6 | 8.0 | 0.00 | 0.00 | 0.00 | 62 | 1017.0 |
| 20260507012601 | 20 | 200 | 1.6 | 8.0 | 0.00 | 0.00 | 0.00 | 61 | 1017.1 |
| 20260507012211 | 20 | 192 | 1.6 | 8.0 | 0.00 | 0.00 | 0.00 | 61 | 1017.1 |
| 20260507011959 | 20 | 209 | 0.0 | 8.0 | 0.00 | 0.00 | 0.00 | 61 | 1017.2 |
| 20260507011748 | 20 | 205 | 0.0 | 4.8 | 0.00 | 0.00 | 0.00 | 62 | 1017.2 |
| 20260507011543 | 20 | 205 | 0.0 | 4.8 | 0.00 | 0.00 | 0.00 | 62 | 1017.2 |
| 20260507011337 | 20 | 205 | 0.0 | 1.6 | 0.00 | 0.00 | 0.00 | 62 | 1017.3 |
| 20260507010949 | 20 | 205 | 0.0 | 6.4 | 0.00 | 0.00 | 0.00 | 61 | 1017.1 |
| 20260507010739 | 20 | 205 | 0.0 | 4.8 | 0.00 | 0.00 | 0.00 | 61 | 1017.2 |
| 20260507010532 | 20 | 205 | 0.0 | 4.8 | 0.00 | 0.00 | 0.00 | 61 | 1017.2 |
| 20260507005950 | 20 | 209 | 0.0 | 4.8 | 0.00 | 0.00 | 0.00 | 63 | 1017.2 |
| 20260507005737 | 20 | 209 | 0.0 | 0.0 | 0.00 | 0.00 | 0.00 | 61 | 1017.2 |
| 20260507005527 | 20 | 209 | 0.0 | 6.4 | 0.00 | 0.00 | 0.00 | 61 | 1017.2 |
| 20260507005323 | 20 | 209 | 0.0 | 6.4 | 0.00 | 0.00 | 0.00 | 61 | 1017.3 |
| 20260507005118 | 20 | 209 | 0.0 | 3.2 | 0.00 | 0.00 | 0.00 | 60 | 1017.3 |
| 20260507004912 | 20 | 208 | 0.0 | 8.0 | 0.00 | 0.00 | 0.00 | 61 | 1017.3 |
| 20260507004700 | 20 | 208 | 0.0 | 8.0 | 0.00 | 0.00 | 0.00 | 61 | 1017.3 |
| 20260507004312 | 20 | 205 | 0.0 | 8.0 | 0.00 | 0.00 | 0.00 | 60 | 1017.4 |
| 20260507003925 | 20 | 207 | 0.0 | 8.0 | 0.00 | 0.00 | 0.00 | 60 | 1017.3 |
| 20260507003713 | 20 | 276 | 0.0 | 6.4 | 0.00 | 0.00 | 0.00 | 61 | 1017.4 |
| 20260507003512 | 20 | 276 | 0.0 | 6.4 | 0.00 | 0.00 | 0.00 | 60 | 1017.4 |
| 20260507003308 | 21 | 186 | 0.0 | 8.0 | 0.00 | 0.00 | 0.00 | 60 | 1017.3 |
| 20260507003058 | 20 | 186 | 0.0 | 8.0 | 0.00 | 0.00 | 0.00 | 61 | 1017.3 |
| 20260507002853 | 21 | 185 | 1.6 | 8.0 | 0.00 | 0.00 | 0.00 | 60 | 1017.3 |
| 20260507002649 | 21 | 185 | 1.6 | 8.0 | 0.00 | 0.00 | 0.00 | 60 | 1017.3 |
| 20260507002439 | 21 | 221 | 1.6 | 8.0 | 0.00 | 0.00 | 0.00 | 58 | 1017.3 |
| 20260507002234 | 21 | 192 | 1.6 | 9.7 | 0.00 | 0.00 | 0.00 | 59 | 1017.3 |
| 20260507002021 | 21 | 300 | 0.0 | 9.7 | 0.00 | 0.00 | 0.00 | 59 | 1017.3 |
| 20260507001818 | 21 | 310 | 1.6 | 9.7 | 0.00 | 0.00 | 0.00 | 58 | 1017.3 |
| 20260507001608 | 21 | 203 | 0.0 | 9.7 | 0.00 | 0.00 | 0.00 | 59 | 1017.3 |
| 20260507001359 | 21 | 185 | 1.6 | 9.7 | 0.00 | 0.00 | 0.00 | 61 | 1017.3 |
| 20260507001153 | 21 | 185 | 1.6 | 9.7 | 0.00 | 0.00 | 0.00 | 59 | 1017.3 |
| 20260507000950 | 21 | 195 | 1.6 | 9.7 | 0.00 | 0.00 | 0.00 | 58 | 1017.2 |
| 20260507000739 | 21 | 202 | 1.6 | 9.7 | 0.00 | 0.00 | 0.00 | 58 | 1017.3 |
| 20260507000534 | 21 | 202 | 1.6 | 9.7 | 0.00 | 0.00 | 0.00 | 59 | 1017.3 |
| 20260507000331 | 21 | 158 | 1.6 | 9.7 | 0.00 | 0.00 | 0.00 | 59 | 1017.3 |
| 20260507000130 | 21 | 161 | 1.6 | 9.7 | 0.00 | 0.00 | 0.00 | 58 | 1017.3 |
| 20260506235926 | 21 | 220 | 1.6 | 9.7 | 0.00 | 0.00 | 0.00 | 58 | 1017.4 |
| 20260506235537 | 21 | 197 | 0.0 | 6.4 | 0.00 | 0.00 | 0.00 | 60 | 1017.3 |
| 20260506235328 | 21 | 246 | 0.0 | 6.4 | 0.00 | 0.00 | 0.00 | 61 | 1017.3 |
| 20260506235118 | 21 | 246 | 0.0 | 6.4 | 0.00 | 0.00 | 0.00 | 58 | 1017.3 |
| 20260506234909 | 21 | 245 | 0.0 | 6.4 | 0.00 | 0.00 | 0.00 | 60 | 1017.3 |
| 20260506234656 | 21 | 282 | 0.0 | 6.4 | 0.00 | 0.00 | 0.00 | 59 | 1017.3 |
| 20260506234443 | 21 | 282 | 0.0 | 6.4 | 0.00 | 0.00 | 0.00 | 60 | 1017.3 |
| 20260506234055 | 21 | 282 | 0.0 | 6.4 | 0.00 | 0.00 | 0.00 | 59 | 1017.3 |
| 20260506233704 | 21 | 243 | 1.6 | 4.8 | 0.00 | 0.00 | 0.00 | 60 | 1017.3 |
| 20260506233455 | 21 | 276 | 0.0 | 4.8 | 0.00 | 0.00 | 0.00 | 59 | 1017.3 |
| 20260506233245 | 21 | 276 | 1.6 | 12.9 | 0.00 | 0.00 | 0.00 | 60 | 1017.3 |
| 20260506233033 | 21 | 274 | 1.6 | 12.9 | 0.00 | 0.00 | 0.00 | 61 | 1017.3 |
| 20260506232828 | 21 | 285 | 1.6 | 12.9 | 0.00 | 0.00 | 0.00 | 59 | 1017.3 |
| 20260506232626 | 21 | 312 | 1.6 | 12.9 | 0.00 | 0.00 | 0.00 | 59 | 1017.3 |
| 20260506232238 | 21 | 302 | 1.6 | 12.9 | 0.00 | 0.00 | 0.00 | 59 | 1017.4 |
| 20260506231848 | 21 | 252 | 1.6 | 11.3 | 0.00 | 0.00 | 0.00 | 59 | 1017.3 |
| 20260506231644 | 21 | 252 | 1.6 | 11.3 | 0.00 | 0.00 | 0.00 | 60 | 1017.4 |
| 20260506231249 | 21 | 281 | 1.6 | 11.3 | 0.00 | 0.00 | 0.00 | 61 | 1017.5 |
| 20260506230859 | 21 | 259 | 1.6 | 11.3 | 0.00 | 0.00 | 0.00 | 61 | 1017.6 |
| 20260506230650 | 21 | 279 | 1.6 | 11.3 | 0.00 | 0.00 | 0.00 | 57 | 1017.7 |
| 20260506230447 | 21 | 273 | 0.0 | 9.7 | 0.00 | 0.00 | 0.00 | 59 | 1017.7 |
| 20260506230244 | 21 | 279 | 0.0 | 9.7 | 0.00 | 0.00 | 0.00 | 60 | 1017.6 |
| 20260506230036 | 21 | 278 | 0.0 | 9.7 | 0.00 | 0.00 | 0.00 | 59 | 1017.7 |
| 20260506225827 | 21 | 204 | 0.0 | 9.7 | 0.00 | 0.00 | 0.00 | 60 | 1017.7 |
| 20260506225621 | 21 | 217 | 0.0 | 9.7 | 0.00 | 0.00 | 0.00 | 60 | 1017.7 |
| 20260506225409 | 21 | 213 | 0.0 | 9.7 | 0.00 | 0.00 | 0.00 | 60 | 1017.8 |
| 20260506225202 | 21 | 288 | 0.0 | 8.0 | 0.00 | 0.00 | 0.00 | 60 | 1017.8 |
| 20260506224952 | 21 | 290 | 1.6 | 8.0 | 0.00 | 0.00 | 0.00 | 59 | 1017.8 |
| 20260506224748 | 21 | 280 | 1.6 | 8.0 | 0.00 | 0.00 | 0.00 | 60 | 1017.8 |
| 20260506224542 | 21 | 279 | 1.6 | 8.0 | 0.00 | 0.00 | 0.00 | 60 | 1017.8 |
| 20260506224331 | 21 | 280 | 1.6 | 8.0 | 0.00 | 0.00 | 0.00 | 60 | 1017.9 |
| 20260506223752 | 21 | 251 | 0.0 | 8.0 | 0.00 | 0.00 | 0.00 | 59 | 1017.9 |
| 20260506223540 | 21 | 250 | 1.6 | 8.0 | 0.00 | 0.00 | 0.00 | 61 | 1017.9 |
| 20260506223333 | 21 | 155 | 0.0 | 8.0 | 0.00 | 0.00 | 0.00 | 61 | 1017.9 |
| 20260506223125 | 21 | 228 | 0.0 | 9.7 | 0.00 | 0.00 | 0.00 | 61 | 1018.0 |
| 20260506222914 | 21 | 228 | 1.6 | 9.7 | 0.00 | 0.00 | 0.00 | 60 | 1018.0 |
| 20260506222710 | 20 | 212 | 1.6 | 9.7 | 0.00 | 0.00 | 0.00 | 62 | 1018.0 |
| 20260506222507 | 20 | 213 | 1.6 | 9.7 | 0.00 | 0.00 | 0.00 | 61 | 1018.0 |
| 20260506222305 | 20 | 214 | 1.6 | 9.7 | 0.00 | 0.00 | 0.00 | 60 | 1018.1 |
| 20260506222056 | 20 | 288 | 1.6 | 11.3 | 0.00 | 0.00 | 0.00 | 59 | 1018.1 |
| 20260506221850 | 21 | 287 | 1.6 | 11.3 | 0.00 | 0.00 | 0.00 | 59 | 1018.2 |
| 20260506221641 | 21 | 351 | 1.6 | 11.3 | 0.00 | 0.00 | 0.00 | 59 | 1018.1 |
| 20260506221437 | 21 | 315 | 1.6 | 11.3 | 0.00 | 0.00 | 0.00 | 60 | 1018.2 |
| 20260506220904 | 21 | 250 | 1.6 | 11.3 | 0.00 | 0.00 | 0.00 | 61 | 1018.3 |
| 20260506220701 | 20 | 266 | 1.6 | 11.3 | 0.00 | 0.00 | 0.00 | 61 | 1018.4 |
| 20260506220458 | 20 | 292 | 1.6 | 11.3 | 0.00 | 0.00 | 0.00 | 63 | 1018.3 |
| 20260506220247 | 20 | 294 | 1.6 | 11.3 | 0.00 | 0.00 | 0.00 | 61 | 1018.4 |
| 20260506220038 | 20 | 267 | 1.6 | 8.0 | 0.00 | 0.00 | 0.00 | 62 | 1018.4 |
| 20260506215829 | 20 | 235 | 0.0 | 8.0 | 0.00 | 0.00 | 0.00 | 63 | 1018.4 |
| 20260506215616 | 20 | 269 | 1.6 | 11.3 | 0.00 | 0.00 | 0.00 | 62 | 1018.4 |
| 20260506215415 | 20 | 269 | 1.6 | 11.3 | 0.00 | 0.00 | 0.00 | 60 | 1018.5 |
| 20260506215212 | 20 | 240 | 1.6 | 11.3 | 0.00 | 0.00 | 0.00 | 60 | 1018.5 |
| 20260506215001 | 20 | 225 | 3.2 | 11.3 | 0.00 | 0.00 | 0.00 | 63 | 1018.4 |
| 20260506214758 | 20 | 161 | 1.6 | 11.3 | 0.00 | 0.00 | 0.00 | 61 | 1018.5 |
| 20260506214556 | 20 | 167 | 1.6 | 8.0 | 0.00 | 0.00 | 0.00 | 61 | 1018.5 |
| 20260506214354 | 20 | 182 | 1.6 | 8.0 | 0.00 | 0.00 | 0.00 | 62 | 1018.5 |
| 20260506214141 | 20 | 226 | 1.6 | 8.0 | 0.00 | 0.00 | 0.00 | 61 | 1018.5 |
| 20260506213936 | 20 | 294 | 1.6 | 12.9 | 0.00 | 0.00 | 0.00 | 61 | 1018.5 |
| 20260506213724 | 20 | 178 | 1.6 | 12.9 | 0.00 | 0.00 | 0.00 | 60 | 1018.5 |
| 20260506213335 | 20 | 202 | 1.6 | 12.9 | 0.00 | 0.00 | 0.00 | 60 | 1018.6 |
| 20260506213123 | 20 | 269 | 1.6 | 12.9 | 0.00 | 0.00 | 0.00 | 61 | 1018.6 |
| 20260506212922 | 20 | 217 | 1.6 | 12.9 | 0.00 | 0.00 | 0.00 | 62 | 1018.6 |
| 20260506212709 | 20 | 182 | 1.6 | 12.9 | 0.00 | 0.00 | 0.00 | 62 | 1018.6 |
| 20260506212312 | 20 | 167 | 1.6 | 12.9 | 0.00 | 0.00 | 0.00 | 61 | 1018.6 |
| 20260506212101 | 20 | 151 | 1.6 | 11.3 | 0.00 | 0.00 | 0.00 | 62 | 1018.6 |
| 20260506211707 | 20 | 275 | 1.6 | 9.7 | 0.00 | 0.00 | 0.00 | 59 | 1018.7 |
| 20260506211315 | 20 | 295 | 1.6 | 9.7 | 0.00 | 0.00 | 0.00 | 62 | 1018.8 |
| 20260506211107 | 20 | 312 | 3.2 | 9.7 | 0.00 | 0.00 | 0.00 | 61 | 1018.8 |
| 20260506210716 | 20 | 294 | 1.6 | 9.7 | 0.00 | 0.00 | 0.00 | 61 | 1018.8 |
| 20260506210514 | 20 | 218 | 1.6 | 9.7 | 0.00 | 0.00 | 0.00 | 60 | 1018.7 |
| 20260506210312 | 20 | 269 | 1.6 | 9.7 | 0.00 | 0.00 | 0.00 | 61 | 1018.9 |
| 20260506210101 | 20 | 195 | 0.0 | 8.0 | 0.00 | 0.00 | 0.00 | 62 | 1018.8 |
| 20260506205848 | 20 | 225 | 0.0 | 8.0 | 0.00 | 0.00 | 0.00 | 60 | 1018.8 |
| 20260506205642 | 20 | 275 | 0.0 | 1.6 | 0.00 | 0.00 | 0.00 | 64 | 1018.9 |
| 20260506205432 | 20 | 275 | 0.0 | 3.2 | 0.00 | 0.00 | 0.00 | 62 | 1018.9 |
| 20260506205219 | 20 | 275 | 0.0 | 3.2 | 0.00 | 0.00 | 0.00 | 60 | 1018.9 |
| 20260506205012 | 20 | 274 | 0.0 | 8.0 | 0.00 | 0.00 | 0.00 | 60 | 1018.9 |
| 20260506204804 | 20 | 274 | 1.6 | 8.0 | 0.00 | 0.00 | 0.00 | 60 | 1019.0 |
| 20260506204412 | 20 | 190 | 1.6 | 9.7 | 0.00 | 0.00 | 0.00 | 61 | 1019.0 |
| 20260506204205 | 19 | 217 | 3.2 | 9.7 | 0.00 | 0.00 | 0.00 | 61 | 1019.0 |
| 20260506203956 | 19 | 260 | 3.2 | 9.7 | 0.00 | 0.00 | 0.00 | 62 | 1019.1 |
| 20260506203753 | 19 | 351 | 1.6 | 9.7 | 0.00 | 0.00 | 0.00 | 61 | 1019.1 |
| 20260506203404 | 19 | 276 | 3.2 | 12.9 | 0.00 | 0.00 | 0.00 | 61 | 1019.1 |
| 20260506203201 | 19 | 294 | 1.6 | 12.9 | 0.00 | 0.00 | 0.00 | 61 | 1019.1 |
| 20260506202952 | 18 | 190 | 3.2 | 12.9 | 0.00 | 0.00 | 0.00 | 62 | 1019.1 |
| 20260506202740 | 18 | 229 | 3.2 | 12.9 | 0.00 | 0.00 | 0.00 | 61 | 1019.2 |
| 20260506202531 | 18 | 331 | 4.8 | 12.9 | 0.00 | 0.00 | 0.00 | 61 | 1019.2 |
| 20260506202319 | 18 | 200 | 3.2 | 12.9 | 0.00 | 0.00 | 0.00 | 61 | 1019.2 |
| 20260506202115 | 18 | 194 | 3.2 | 12.9 | 0.00 | 0.00 | 0.00 | 61 | 1019.2 |
| 20260506201906 | 19 | 157 | 3.2 | 12.9 | 0.00 | 0.00 | 0.00 | 61 | 1019.3 |
| 20260506201655 | 18 | 217 | 1.6 | 12.9 | 0.00 | 0.00 | 0.00 | 61 | 1019.2 |
| 20260506201446 | 19 | 292 | 3.2 | 9.7 | 0.00 | 0.00 | 0.00 | 59 | 1019.2 |
| 20260506201239 | 19 | 190 | 1.6 | 8.0 | 0.00 | 0.00 | 0.00 | 61 | 1019.3 |
| 20260506201026 | 19 | 276 | 1.6 | 8.0 | 0.00 | 0.00 | 0.00 | 62 | 1019.4 |
| 20260506200636 | 19 | 179 | 1.6 | 9.7 | 0.00 | 0.00 | 0.00 | 61 | 1019.3 |
| 20260506200425 | 18 | 196 | 1.6 | 9.7 | 0.00 | 0.00 | 0.00 | 61 | 1019.4 |
| 20260506200218 | 18 | 194 | 1.6 | 9.7 | 0.00 | 0.00 | 0.00 | 62 | 1019.4 |
| 20260506195831 | 18 | 200 | 0.0 | 9.7 | 0.00 | 0.00 | 0.00 | 61 | 1019.3 |
| 20260506195619 | 19 | 251 | 0.0 | 9.7 | 0.00 | 0.00 | 0.00 | 59 | 1019.4 |
| 20260506195414 | 18 | 210 | 1.6 | 9.7 | 0.00 | 0.00 | 0.00 | 62 | 1019.4 |
| 20260506195207 | 18 | 200 | 1.6 | 9.7 | 0.00 | 0.00 | 0.00 | 62 | 1019.4 |
| 20260506194959 | 18 | 282 | 1.6 | 9.7 | 0.00 | 0.00 | 0.00 | 61 | 1019.4 |
| 20260506194748 | 18 | 283 | 1.6 | 9.7 | 0.00 | 0.00 | 0.00 | 58 | 1019.5 |
| 20260506194536 | 18 | 282 | 0.0 | 9.7 | 0.00 | 0.00 | 0.00 | 63 | 1019.4 |
| 20260506194331 | 18 | 269 | 0.0 | 9.7 | 0.00 | 0.00 | 0.00 | 60 | 1019.5 |
| 20260506194129 | 18 | 268 | 0.0 | 9.7 | 0.00 | 0.00 | 0.00 | 60 | 1019.6 |
| 20260506193926 | 18 | 257 | 0.0 | 8.0 | 0.00 | 0.00 | 0.00 | 61 | 1019.5 |
| 20260506193715 | 18 | 258 | 1.6 | 8.0 | 0.00 | 0.00 | 0.00 | 60 | 1019.5 |